Location: Aranbee
(34.0885°N, 118.2342°W)
Time: 08:26:07
(UTC+00:00)

Courier 1B Rocket - Pass Details

Date: 26 November 2020
Orbit: 920 x 1202 km, 28.2° (Epoch: 27 January)

Event Time Altitude Azimuth Distance (km) Brightness Sun altitude
Rises 13:52:52 0° 235° (SW) 4,089 7.9 -9.2°
Reaches altitude 10° 13:55:57 10° 227° (SW) 3,122 7.4 -8.6°
Maximum altitude 14:03:01 38° 163° (SSE) 1,707 6.7 -7.2°
Drops below altitude 10° 14:09:50 10° 98° (E) 3,018 9.2 -5.9°
Sets 14:12:46 0° 90° (E) 3,939 9.7 -5.3°
